Weather in Bolshoy Berchikul

Russia / Kemerovo Oblast     55°38′17″N   88°18′15″E
temp.,
°C
wind,
m/s
gust,
m/s
humid.,
%
clouds,
%
prec.,
mm/h
press.,
hPa
HPBL,
m
27 november, sat
sat2701:00−15sw6168311 0.0 1035541
04:00−14sw6168264 0.0 1036555
07:00−12sw7177995 0.0 1036650
10:00−11sw71678100 0.0 1035880
13:00−10sw7157886 0.0 1034990
16:00−9sw71579100 0.0 1034898
19:00−9sw81779100 0.0 1032873
22:00−8sw81780100 0.0 10291001
28 november, sun
sun2801:00−6sw91883100 0.3 10261078
04:00−6sw101984100 0.3 10241159
07:00−6wsw91784100 0.6 10241072
10:00−6wsw81586100 0.3 1026916
13:00−5wsw8158497 0.3 1027848
16:00−6sw81682100 0.0 1029781
19:00−6wsw8178299 0.0 1030788
22:00−6wsw8168499 0.0 1032770
29 november, mon
mon2901:00−6wsw7158599 0.1 1033744
04:00−7wsw71485100 0.0 1035613
07:00−7sw61583100 0.0 1035538
10:00−7sw5148271 0.0 1035499
13:00−5sw51482100 0.0 1033603
16:00−4sw51481100 0.0 1032573
19:00−5sw51477100 0.0 1031469
22:00−5sw51574100 0.0 1030472
30 november, tue
tue3001:00−5sw51669100 0.0 1029497
04:00−5sw6176497 0.0 1028515
07:00−5sw6176299 0.0 1027496
10:00−4sw82061100 0.0 1026551
13:00−4sw8196599 0.0 1025609
16:00−4sw8196699 0.0 1025587
19:00−5sw8196853 0.0 1025571
22:00−5sw81969100 0.0 1026526
1 december, wed
wed101:00−5sw8197287 0.0 1026521
04:00−6wsw71674100 0.0 1029525
07:00−6wsw51374100 0.0 1030467
10:00−6wsw3127695 0.0 1030393
13:00−4sw21176100 0.0 1029410
16:00−6ssw1381100 0.0 102959
19:00−6sw31071100 0.0 1027215
22:00−3sw31166100 0.0 1026246